Milan, Italy

6:20 AM CEST on May 25, 2017 (GMT +0200)
Malpensa

Weather History for LIMC - June, 2013

Change the Weather History Date:

Saturday, June 8, 2013

  Actual Average Record
Temperature  
Mean Temperature 70 °F -  
Max Temperature 80 °F 79 °F 89 °F (2014)
Min Temperature 59 °F 56 °F 50 °F (2005)
Cooling Degree Days 4    
Growing Degree Days 20 (Base 50)    
Moisture  
Dew Point 56 °F    
Average Humidity 65    
Maximum Humidity 94    
Minimum Humidity 42    
Precipitation  
Precipitation 0.00 in 0.11 in - ()
Sea Level Pressure  
Sea Level Pressure 29.98 in    
Wind  
Wind Speed 4 mph ()    
Max Wind Speed 7 mph    
Max Gust Speed -    
Visibility 6.2 miles    
Events      
Averages and records for this station are not official NWS values.
T = Trace of Precipitation, MM = Missing Value Source: Averaged Metar Reports

Daily Weather History Graph

Daily Weather History Graph

Search for Another Location

Airport or City:

Trip Planner

Search our weather history database for the weather conditions in past years. The results will help you decide how hot, cold, wet, or windy it might be!

Date:

Astronomy

Jun. 08, 2013 Rise Set
Actual Time 5:36 AM CEST 9:12 PM CEST
Civil Twilight 4:58 AM CEST 9:50 PM CEST
Nautical Twilight 4:08 AM CEST 10:40 PM CEST
Astronomical Twilight 3:02 AM CEST 11:47 PM CEST
Moon 5:34 AM CEST (6/8) 8:58 PM CEST (6/8)
Length of Visible Light 16h 51m
Length of Day
15h 36m
Waning Crescent, 0% of the Moon is Illuminated
Jun 8
Waning Crescent
Jun 8
New
Jun 16
First Quarter
Jun 23
Full
Jun 30
Last Quarter

Hourly Weather History & Observations

Time (CEST) Temp. Heat Index Dew Point Humidity Pressure Visibility Wind Dir Wind Speed Gust Speed Precip Events Conditions
12:20 AM 64.4 °F - 59.0 °F 83% 30.04 in - WNW 3.5 mph - N/A   Clear
12:50 AM 62.6 °F - 59.0 °F 88% 30.04 in - WSW 4.6 mph - N/A   Clear
1:20 AM 62.6 °F - 59.0 °F 88% 30.04 in - South 3.5 mph - N/A   Clear
1:50 AM 62.6 °F - 60.8 °F 94% 30.04 in - WNW 3.5 mph - N/A   Clear
2:20 AM 62.6 °F - 59.0 °F 88% 30.04 in - WNW 3.5 mph - N/A   Clear
2:50 AM 60.8 °F - 59.0 °F 94% 30.04 in - WNW 3.5 mph - N/A   Clear
3:20 AM 59.0 °F - 57.2 °F 94% 30.04 in - NW 4.6 mph - N/A   Clear
3:50 AM 60.8 °F - 57.2 °F 88% 30.04 in - NW 4.6 mph - N/A   Clear
4:20 AM 59.0 °F - 57.2 °F 94% 30.01 in - NW 4.6 mph - N/A   Clear
4:50 AM 59.0 °F - 57.2 °F 94% 30.01 in - WNW 3.5 mph - N/A   Clear
5:20 AM 59.0 °F - 57.2 °F 94% 30.01 in - WNW 3.5 mph - N/A   Clear
5:50 AM 60.8 °F - 57.2 °F 88% 30.01 in - WNW 3.5 mph - N/A   Clear
6:20 AM 60.8 °F - 57.2 °F 88% 30.01 in 6.2 mi West 3.5 mph - N/A   Partly Cloudy
6:50 AM 60.8 °F - 59.0 °F 94% 30.04 in 6.2 mi WNW 3.5 mph - N/A   Partly Cloudy
7:20 AM 62.6 °F - 59.0 °F 88% 30.04 in 6.2 mi West 4.6 mph - N/A   Partly Cloudy
7:50 AM 64.4 °F - 59.0 °F 83% 30.04 in 6.2 mi WNW 4.6 mph - N/A   Partly Cloudy
8:20 AM 66.2 °F - 59.0 °F 78% 30.04 in 6.2 mi WNW 3.5 mph - N/A   Partly Cloudy
8:50 AM 69.8 °F - 59.0 °F 68% 30.04 in 6.2 mi Variable 2.3 mph - N/A   Partly Cloudy
9:20 AM 71.6 °F - 55.4 °F 57% 30.04 in 6.2 mi Variable 2.3 mph - N/A   Partly Cloudy
9:50 AM 71.6 °F - 57.2 °F 60% 30.04 in 6.2 mi South 3.5 mph - N/A   Partly Cloudy
10:20 AM 73.4 °F - 57.2 °F 57% 30.01 in 6.2 mi SSW 3.5 mph - N/A   Partly Cloudy
10:50 AM 75.2 °F - 57.2 °F 53% 30.01 in - Variable 3.5 mph - N/A   Clear
11:20 AM 75.2 °F - 57.2 °F 53% 30.01 in - Variable 3.5 mph - N/A   Clear
11:50 AM 75.2 °F - 57.2 °F 53% 30.01 in - South 5.8 mph - N/A   Clear
12:20 PM 77.0 °F - 59.0 °F 54% 30.01 in - South 5.8 mph - N/A   Clear
12:50 PM 77.0 °F - 59.0 °F 54% 30.01 in - Variable 4.6 mph - N/A   Clear
1:20 PM 77.0 °F - 59.0 °F 54% 30.01 in - SSW 6.9 mph - N/A   Clear
1:50 PM 77.0 °F - 55.4 °F 47% 29.98 in - WSW 4.6 mph - N/A   Clear
2:20 PM 78.8 °F - 53.6 °F 42% 29.95 in - Variable 4.6 mph - N/A   Clear
2:50 PM 80.6 °F 80.5 °F 55.4 °F 42% 29.95 in 6.2 mi SW 5.8 mph - N/A   Partly Cloudy
3:20 PM 80.6 °F 80.5 °F 55.4 °F 42% 29.95 in 6.2 mi SW 4.6 mph - N/A   Scattered Clouds
3:50 PM 78.8 °F - 55.4 °F 44% 29.95 in 6.2 mi South 6.9 mph - N/A   Mostly Cloudy
4:20 PM 78.8 °F - 55.4 °F 44% 29.95 in 6.2 mi South 5.8 mph - N/A   Mostly Cloudy
4:50 PM 78.8 °F - 55.4 °F 44% 29.92 in 6.2 mi South 5.8 mph - N/A   Partly Cloudy
5:20 PM 77.0 °F - 55.4 °F 47% 29.92 in 6.2 mi South 6.9 mph - N/A   Partly Cloudy
5:50 PM 77.0 °F - 55.4 °F 47% 29.92 in 6.2 mi SSW 6.9 mph - N/A   Partly Cloudy
6:20 PM 77.0 °F - 55.4 °F 47% 29.89 in 6.2 mi South 5.8 mph - N/A   Partly Cloudy
6:50 PM 75.2 °F - 53.6 °F 47% 29.89 in 6.2 mi South 5.8 mph - N/A   Partly Cloudy
7:20 PM 75.2 °F - 55.4 °F 50% 29.89 in - SSW 6.9 mph - N/A   Clear
7:50 PM 73.4 °F - 55.4 °F 53% 29.89 in - SSW 6.9 mph - N/A   Clear
8:20 PM 71.6 °F - 55.4 °F 57% 29.89 in 6.2 mi SSW 5.8 mph - N/A   Mostly Cloudy
8:50 PM 71.6 °F - 53.6 °F 53% 29.89 in 6.2 mi SSW 5.8 mph - N/A   Mostly Cloudy
9:20 PM 69.8 °F - 51.8 °F 53% 29.92 in 6.2 mi SSW 4.6 mph - N/A   Mostly Cloudy
9:50 PM 68.0 °F - 53.6 °F 60% 29.92 in 6.2 mi Variable 2.3 mph - N/A   Mostly Cloudy
10:20 PM 68.0 °F - 51.8 °F 56% 29.92 in 6.2 mi Variable 3.5 mph - N/A   Mostly Cloudy
10:50 PM 64.4 °F - 48.2 °F 56% 29.92 in 6.2 mi SSW 4.6 mph - N/A   Mostly Cloudy
11:20 PM 66.2 °F - 48.2 °F 52% 29.92 in 6.2 mi SSW 5.8 mph - N/A   Mostly Cloudy
11:50 PM 66.2 °F - 48.2 °F 52% 29.92 in 6.2 mi SW 2.3 mph - N/A   Mostly Cloudy